FW2458 Weather Reports


time (UTC)temp
F
wind
direction
speed
knots
gust
knots
rain 1hr
in
rain 24hr
in
rain mn
in
humidity
%
barometer
mb
20260504192048 73 239 2.6 9.6 0.00 0.00 0.00 37 1009.3
20260504191548 73 231 2.6 9.6 0.00 0.00 0.00 34 1009.2
20260504191049 73 183 1.7 9.6 0.00 0.00 0.00 35 1009.4
20260504190548 73 48 1.7 6.1 0.00 0.00 0.00 38 1009.5
20260504190048 73 86 1.7 6.1 0.00 0.00 0.00 38 1009.6
20260504185548 72 42 1.7 8.7 0.00 0.00 0.00 38 1009.5
20260504185051 72 53 2.6 8.7 0.00 0.00 0.00 36 1009.5
20260504184550 72 68 2.6 9.6 0.00 0.00 0.00 38 1009.6
20260504184047 73 55 2.6 9.6 0.00 0.00 0.00 36 1009.7
20260504183913 73 202 2.6 8.7 0.00 0.00 0.00 38 1010.0
20260504183830 72 24 2.6 9.6 0.00 0.00 0.00 38 1009.9
20260504182547 72 34 2.6 9.6 0.00 0.00 0.00 39 1010.0
20260504182046 72 170 2.6 9.6 0.00 0.00 0.00 37 1009.9
20260504181548 72 232 1.7 9.6 0.00 0.00 0.00 39 1010.0
20260504181047 72 204 1.7 7.0 0.00 0.00 0.00 42 1010.1
20260504180547 72 34 1.7 8.7 0.00 0.00 0.00 39 1010.2
20260504180046 72 32 1.7 8.7 0.00 0.00 0.00 39 1010.2
20260504175546 71 32 1.7 8.7 0.00 0.00 0.00 38 1010.2
20260504175310 71 60 1.7 8.7 0.00 0.00 0.00 37 1010.2
20260504174544 71 75 1.7 7.8 0.00 0.00 0.00 39 1010.3
20260504174042 71 106 2.6 8.7 0.00 0.00 0.00 38 1010.5
20260504173543 71 58 2.6 8.7 0.00 0.00 0.00 38 1010.6
20260504173041 71 211 1.7 7.8 0.00 0.00 0.00 43 1010.6
20260504172749 71 28 2.6 7.8 0.00 0.00 0.00 41 1010.8
20260504172639 71 291 2.6 7.8 0.00 0.00 0.00 38 1010.8
20260504172210 71 192 1.7 7.8 0.00 0.00 0.00 37 1010.8
20260504171038 71 99 2.6 8.7 0.00 0.00 0.00 40 1010.8
20260504170807 71 231 2.6 8.7 0.00 0.00 0.00 38 1010.9
20260504170305 70 108 1.7 7.8 0.00 0.00 0.00 39 1011.0
20260504151011 67 130 1.7 8.7 0.00 0.00 0.00 41 1012.3
20260504150505 67 188 1.7 8.7 0.00 0.00 0.00 42 1012.3
20260504140844 64 33 1.7 5.2 0.00 0.00 0.00 42 1012.7
20260504140338 64 128 1.7 5.2 0.00 0.00 0.00 43 1012.8
20260504130545 59 134 1.7 6.1 0.00 0.00 0.00 48 1013.1
20260504120319 51 221 0.9 5.2 0.00 0.00 0.00 60 1013.6
20260504110313 43 239 0.0 2.6 0.00 0.00 0.00 73 1013.6
20260504100253 43 50 0.0 3.5 0.00 0.00 0.00 70 1013.4
20260504081646 44 210 0.0 0.9 0.00 0.00 0.00 68 1013.1
20260504081407 44 210 0.0 0.9 0.00 0.00 0.00 69 1013.0
20260504080645 44 210 0.0 0.9 0.00 0.00 0.00 68 1013.0
20260504080158 44 210 0.0 0.9 0.00 0.00 0.00 69 1013.0
20260504070145 44 210 0.0 0.0 0.00 0.00 0.00 69 1012.8
20260504060134 44 210 0.0 1.7 0.00 0.00 0.00 69 1012.8
20260504050127 44 210 0.0 0.0 0.00 0.00 0.00 71 1012.6
20260504045852 44 210 0.0 0.0 0.00 0.00 0.00 70 1012.6
20260504045339 44 210 0.0 0.0 0.00 0.00 0.00 70 1012.6
20260504044605 44 210 0.0 0.0 0.00 0.00 0.00 69 1012.6
20260504044059 44 210 0.0 0.0 0.00 0.00 0.00 69 1012.7
20260504043553 44 210 0.0 0.0 0.00 0.00 0.00 68 1012.6
20260504043043 44 210 0.0 0.0 0.00 0.00 0.00 68 1012.6
20260504042537 44 210 0.0 0.0 0.00 0.00 0.00 68 1012.5
20260504042247 44 210 0.0 0.0 0.00 0.00 0.00 67 1012.4
20260504041519 45 210 0.0 0.0 0.00 0.00 0.00 67 1012.3
20260504041013 45 210 0.0 1.7 0.00 0.00 0.00 66 1012.3
20260504040507 45 210 0.0 1.7 0.00 0.00 0.00 66 1012.3
20260504035957 45 210 0.0 1.7 0.00 0.00 0.00 66 1012.3
20260504035451 45 210 0.0 1.7 0.00 0.00 0.00 66 1012.3
20260504034945 45 210 0.0 0.9 0.00 0.00 0.00 66 1012.3
20260504034447 45 210 0.0 0.9 0.00 0.00 0.00 66 1012.3
20260504033930 45 210 0.0 0.9 0.00 0.00 0.00 67 1012.3
20260504033423 45 210 0.0 0.9 0.00 0.00 0.00 68 1012.3
20260504032913 45 210 0.0 0.9 0.00 0.00 0.00 67 1012.3
20260504032407 45 210 0.0 0.0 0.00 0.00 0.00 67 1012.3
20260504032349 46 210 0.0 0.0 0.00 0.00 0.00 65 1012.5
20260504031351 46 210 0.0 0.0 0.00 0.00 0.00 65 1012.3
20260504030844 46 210 0.0 0.0 0.00 0.00 0.00 65 1012.3
20260504030338 46 210 0.0 0.0 0.00 0.00 0.00 67 1012.2
20260504030308 46 210 0.0 0.0 0.00 0.00 0.00 67 1012.3
20260504025544 46 210 0.0 0.0 0.00 0.00 0.00 66 1012.2
20260504024817 46 210 0.0 0.0 0.00 0.00 0.00 64 1012.3
20260504024306 47 210 0.0 1.7 0.00 0.00 0.00 64 1012.2
20260504023800 47 210 0.0 1.7 0.00 0.00 0.00 63 1012.1
20260504023255 47 210 0.0 1.7 0.00 0.00 0.00 62 1012.2
20260504022745 47 210 0.0 1.7 0.00 0.00 0.00 62 1012.2
20260504022239 47 210 0.0 0.9 0.00 0.00 0.00 61 1012.2
20260504021733 47 210 0.0 0.9 0.00 0.00 0.00 61 1012.2
20260504021223 47 210 0.0 0.9 0.00 0.00 0.00 60 1012.2
20260504020717 48 210 0.0 0.9 0.00 0.00 0.00 59 1012.2
20260504020209 48 210 0.0 0.9 0.00 0.00 0.00 59 1012.2
20260504015700 48 210 0.0 0.9 0.00 0.00 0.00 58 1012.2
20260504015155 48 210 0.0 0.9 0.00 0.00 0.00 57 1012.2
20260504014648 49 210 0.0 0.9 0.00 0.00 0.00 56 1012.1
20260504014144 49 210 0.0 0.9 0.00 0.00 0.00 56 1012.0
20260504013644 49 210 0.0 0.9 0.00 0.00 0.00 55 1012.0
20260504013143 49 210 0.0 0.9 0.00 0.00 0.00 55 1011.9
20260504012641 50 210 0.0 0.9 0.00 0.00 0.00 55 1011.9
20260504012153 50 210 0.0 0.0 0.00 0.00 0.00 53 1011.9
20260504011654 51 210 0.0 0.0 0.00 0.00 0.00 51 1011.8
20260504011140 51 210 0.0 1.7 0.00 0.00 0.00 51 1011.8
20260504010640 51 210 0.0 1.7 0.00 0.00 0.00 50 1011.8
20260504010136 52 210 0.0 1.7 0.00 0.00 0.00 49 1011.6
20260504005634 52 210 0.0 1.7 0.00 0.00 0.00 49 1011.6
20260504005132 53 210 0.0 0.9 0.00 0.00 0.00 47 1011.6
20260504004630 53 210 0.0 0.9 0.00 0.00 0.00 46 1011.5
20260504004130 54 210 0.0 0.0 0.00 0.00 0.00 45 1011.4
20260504003630 54 210 0.0 0.0 0.00 0.00 0.00 45 1011.4
20260504003132 55 210 0.0 0.9 0.00 0.00 0.00 43 1011.3
20260504002629 55 210 0.0 0.9 0.00 0.00 0.00 42 1011.2
20260504002123 55 210 0.0 0.9 0.00 0.00 0.00 41 1011.1
20260504001617 56 210 0.0 2.6 0.00 0.00 0.00 40 1011.0
20260504001113 56 210 0.0 2.6 0.00 0.00 0.00 39 1010.9
20260504000610 56 210 0.0 2.6 0.00 0.00 0.00 39 1010.9
20260504000112 56 210 0.0 2.6 0.00 0.00 0.00 38 1010.8
20260503235839 57 195 0.0 1.7 0.00 0.00 0.00 38 1010.8
20260503235338 57 195 0.0 2.6 0.00 0.00 0.00 37 1010.7
20260503234607 57 197 0.0 2.6 0.00 0.00 0.00 38 1010.6
20260503234106 57 205 0.0 1.7 0.00 0.00 0.00 37 1010.6
20260503233603 58 205 0.0 1.7 0.00 0.00 0.00 37 1010.6
20260503233102 58 205 0.0 1.7 0.00 0.00 0.00 36 1010.5
20260503232603 58 205 0.0 1.7 0.00 0.00 0.00 35 1010.5
20260503232104 58 205 0.0 5.2 0.00 0.00 0.00 36 1010.5
20260503231604 58 205 0.9 5.2 0.00 0.00 0.00 35 1010.4
20260503231104 59 146 0.9 5.2 0.00 0.00 0.00 35 1010.4
20260503230617 59 115 0.9 5.2 0.00 0.00 0.00 34 1010.3
20260503230108 59 223 0.9 6.1 0.00 0.00 0.00 34 1010.3
20260503225600 59 205 0.0 6.1 0.00 0.00 0.00 34 1010.3
20260503225057 59 213 0.9 6.1 0.00 0.00 0.00 34 1010.2
20260503224556 59 211 0.9 6.1 0.00 0.00 0.00 33 1010.2
20260503224054 59 105 0.9 6.1 0.00 0.00 0.00 34 1010.1
20260503223552 59 55 0.9 5.2 0.00 0.00 0.00 33 1010.1
20260503223532 59 64 0.9 7.0 0.00 0.00 0.00 34 1010.1
20260503222551 59 142 0.9 7.0 0.00 0.00 0.00 33 1010.1
20260503222051 59 69 1.7 6.1 0.00 0.00 0.00 33 1010.2
20260503221551 59 213 1.7 7.8 0.00 0.00 0.00 32 1010.1
20260503221051 59 52 1.7 7.8 0.00 0.00 0.00 33 1010.3
20260503220814 59 207 2.6 7.8 0.00 0.00 0.00 32 1010.2
20260503215550 59 59 1.7 6.1 0.00 0.00 0.00 33 1010.1
20260503215309 59 205 0.9 6.1 0.00 0.00 0.00 32 1010.3
20260503214548 59 204 1.7 6.1 0.00 0.00 0.00 33 1010.1
20260503214049 59 180 1.7 6.1 0.00 0.00 0.00 32 1010.2
20260503213545 59 57 1.7 10.4 0.00 0.00 0.00 33 1010.2
20260503213044 59 69 1.7 10.4 0.00 0.00 0.00 32 1010.1
20260503212815 59 43 2.6 10.4 0.00 0.00 0.00 33 1010.0
20260503212044 59 85 2.6 10.4 0.00 0.00 0.00 32 1010.0
20260503211544 59 106 2.6 8.7 0.00 0.00 0.00 34 1010.0
20260503211044 59 65 1.7 8.7 0.00 0.00 0.00 32 1010.0
20260503210545 59 182 1.7 7.8 0.00 0.00 0.00 35 1010.1
20260503210044 59 74 1.7 12.2 0.00 0.00 0.00 32 1010.0
20260503205546 58 184 1.7 12.2 0.00 0.00 0.00 36 1010.0
20260503205045 58 194 2.6 12.2 0.00 0.00 0.00 33 1010.1
20260503204545 58 109 2.6 12.2 0.00 0.00 0.00 35 1009.9
20260503204045 58 173 1.7 9.6 0.00 0.00 0.00 34 1010.1
20260503203546 59 187 2.6 9.6 0.00 0.00 0.00 32 1010.0
20260503203045 59 173 2.6 11.3 0.00 0.00 0.00 34 1010.1
20260503202544 59 206 2.6 12.2 0.00 0.00 0.00 34 1010.1
20260503202046 58 79 2.6 12.2 0.00 0.00 0.00 36 1010.2
20260503201546 58 192 2.6 12.2 0.00 0.00 0.00 36 1010.1
20260503201044 58 105 1.7 12.2 0.00 0.00 0.00 36 1010.4
20260503200544 58 67 1.7 10.4 0.00 0.00 0.00 35 1010.2
20260503200044 58 215 2.6 10.4 0.00 0.00 0.00 36 1010.3
20260503195545 58 94 1.7 10.4 0.00 0.00 0.00 34 1010.4
20260503195044 58 150 1.7 6.1 0.00 0.00 0.00 34 1010.5
20260503194544 58 200 2.6 9.6 0.00 0.00 0.00 34 1010.6
20260503194313 58 29 1.7 9.6 0.00 0.00 0.00 35 1010.6
20260503193811 58 206 1.7 7.0 0.00 0.00 0.00 35 1010.5
20260503193300 58 162 2.6 8.7 0.00 0.00 0.00 36 1010.5
20260503192544 58 221 2.6 9.6 0.00 0.00 0.00 38 1010.9